Zurück zum Katalog

STARLINK-31583

AktivKommunikationVLEO
NORAD 59369·PAYLOAD·🇺🇸 United States

Gestartet Mar 31, 2024 von Cape Canaveral Space Force Station

Loading…

Nächste Überflüge (nächste 24 Stunden)

TLE

AktuellSource: CelesTrak SupGP

Epoche: Sep 15, 2026, 01:58 UTC

1 59369C 24060X   26258.08243056 -.00007489  00000+0 -27125-3 0  2582
2 59369  43.0014 259.2804 0001500 267.3488 141.3594 15.27581467    14

Verfolge STARLINK-31583 in Echtzeit mit AllMySat

Download on the App Store